カタログに戻る

ATLAS 5 CENTAUR DEB

運用中HEO
NORAD 43952·DEBRIS·🇺🇸 United States

打ち上げ Sep 17, 2014 から Cape Canaveral Space Force Station

Loading…

次のパス (今後24時間)

TLE

最新Source: Space-Track

元期: Sep 13, 2026, 07:39 UTC

1 43952U 14055F   26256.31944425 -.00000245  00000-0  00000-0 0  9993
2 43952  21.4606  67.1914 5126952 306.6843  16.2438  1.97446791 57770

AllMySatでATLAS 5 CENTAUR DEBをリアルタイム追跡

Download on the App Store